Погода в Курченке

Россия / Астраханская область     46°14′00″N   47°32′06″E
темп.,
°C
ветер,
м/с
пор.,
м/с
влажн.,
%
обл.,
%
осадки,
мм/ч
давл.,
гПа
погр.,
м
19 апреля, пн
пн1901:00+14юв117749 0.0 101718
04:00+14сз017583 0.0 101627
07:00+13всв2375100 0.0 101684
10:00+16ююв2263100 0.0 1016393
13:00+18ююз4554100 0.0 1015718
16:00+17зюз3460100 0.1 1015459
19:00+13зюз3388100 5.8 1016208
22:00+14ююз4684100 7.2 1016247
20 апреля, вт
вт2001:00+14ююв3385100 0.0 101554
04:00+13ю2286100 0.0 101516
07:00+13юв458888 0.0 1014147
10:00+15юв4678100 0.1 1015341
13:00+17вюв101264100 0.7 1013560
16:00+19юв111457100 0.7 1011680
19:00+17вюв91467100 0.0 1011498
22:00+15вюв81771100 0.0 1011486
21 апреля, ср
ср2101:00+15вюв81369100 0.1 1012423
04:00+14в61072100 0.2 1013349
07:00+13в6974100 0.0 1014350
10:00+14в567899 0.5 1016330
13:00+14ссв547882 1.7 1017276
16:00+16с6665100 1.7 1017498
19:00+13с8975100 0.0 1018336
22:00+12с698149 0.0 1019248
22 апреля, чт
чт2201:00+11ссз710885 0.0 1019322
04:00+10ссз7128889 0.0 1019325
07:00+11сз61081100 0.0 1020336
10:00+14ссз8116396 0.1 1020532
13:00+16ссз8955100 0.0 1021758
16:00+18ссз6851100 0.2 1020914
19:00+17с5855100 0.0 1021270
22:00+14ссв3362100 0.0 102241
23 апреля, пт
пт2301:00+13с4764100 0.0 1021151
04:00+12с5961100 0.0 1020267
07:00+12с4763100 0.0 1021315
10:00+14ссз565196 0.0 1021549
13:00+16ссз674595 0.0 1021778
16:00+17ссз7845100 0.0 1020992
19:00+16ссз675275 0.0 1021695
22:00+14ссз34600 0.0 102167